Weather reports worldwide

Advertisment
Murcia, Spain (8430): temperature & dewpoint: 09.09.2019 10:00:00 - 15.09.2019 10:00:00 (CEST)Murcia, Spain (8430): wind speed: 09.09.2019 10:00:00 - 15.09.2019 10:00:00 (CEST)Murcia, Spain (8430): wind direction: 09.09.2019 10:00:00 - 15.09.2019 10:00:00 (CEST)Murcia, Spain (8430): reduced air pressure: 09.09.2019 10:00:00 - 15.09.2019 10:00:00 (CEST)Murcia, Spain (8430): visibility: 09.09.2019 10:00:00 - 15.09.2019 10:00:00 (CEST)Murcia, Spain (8430): precipitation: 09.09.2019 10:00:00 - 15.09.2019 10:00:00 (CEST)
Date & Time tt [°C] td [°C] ff [km/h] ff [kn] dd ppp [hPa] vv [km] rr [mm]
15.09.2019 10:00:00 22,4 19,9 4 2 WSW 1018,3 15 0,0
15.09.2019 09:00:00 20,5 19,5 4 2 SSW 1017,7 11 0,0
15.09.2019 08:00:00 20,0 19,0 5 3 W 1017,4 11 -
15.09.2019 07:00:00 20,0 19,0 2 1 WNW 1017,6 12 0,0
15.09.2019 06:00:00 20,1 19,1 4 2 W 1017,7 11 0,0
15.09.2019 05:00:00 20,3 19,0 5 3 SSW 1018,0 13 -
15.09.2019 04:00:00 20,6 18,9 8 4 S 1018,3 15 0,0
15.09.2019 03:00:00 21,0 19,5 5 3 WSW 1018,8 16 0,0
15.09.2019 02:00:00 21,2 19,7 2 1 W 1019,2 13 -
15.09.2019 01:00:00 21,9 19,6 5 3 SSE 1019,9 18 0,0
15.09.2019 00:00:00 22,5 19,9 5 3 WNW 1019,5 19 0,0
14.09.2019 23:00:00 23,1 20,1 4 2 W 1019,9 19 -
14.09.2019 22:00:00 23,3 20,2 5 3 W 1019,7 15 0,0
14.09.2019 21:00:00 23,5 20,2 5 3 S 1019,1 16 0,0
14.09.2019 20:00:00 24,0 20,1 4 2 SSW 1018,3 19 -
14.09.2019 19:00:00 24,3 19,4 4 2 WSW 1018,0 17 0,0
14.09.2019 18:00:00 24,4 19,7 4 2 SSW 1018,5 20 0,0
14.09.2019 17:00:00 24,5 18,7 2 1 S 1019,1 20 -
14.09.2019 16:00:00 23,6 18,5 8 4 W 1019,5 20 0,0
14.09.2019 15:00:00 23,2 18,3 5 3 W 1020,2 20 0,0
14.09.2019 14:00:00 23,0 18,1 5 3 NW 1021,0 20 -
14.09.2019 13:00:00 22,2 18,0 11 6 W 1022,2 20 0,0
14.09.2019 12:00:00 22,3 17,2 5 3 W 1021,4 20 0,0
14.09.2019 11:00:00 21,8 17,4 4 2 WNW 1021,4 20 -
14.09.2019 10:00:00 20,6 17,8 8 4 SW 1021,0 20 0,0
14.09.2019 09:00:00 18,9 17,7 5 3 ESE 1021,0 14 0,0
14.09.2019 08:00:00 18,5 17,0 8 4 W 1020,6 20 -
14.09.2019 07:00:00 18,7 17,2 4 2 E 1021,0 19 0,0
14.09.2019 06:00:00 19,2 17,3 15 8 WNW 1021,0 17 0,0
14.09.2019 05:00:00 19,2 17,5 9 5 NNW 1021,7 15 -
14.09.2019 04:00:00 20,6 17,2 13 7 WSW 1023,0 19 0,0
14.09.2019 03:00:00 20,1 17,3 8 4 SSE 1022,6 20 0,0
14.09.2019 02:00:00 20,6 17,0 22 12 NW 1023,0 20 -
14.09.2019 01:00:00 21,4 17,2 26 14 W 1023,5 20 0,0
14.09.2019 00:00:00 20,7 18,1 13 7 NW 1022,3 19 0,0
13.09.2019 23:00:00 20,6 17,8 5 3 NW 1022,9 18 -
13.09.2019 22:00:00 20,7 17,3 8 4 N 1022,9 18 0,0
13.09.2019 21:00:00 21,3 17,5 13 7 ENE 1022,4 16 0,0
13.09.2019 20:00:00 22,2 18,6 24 13 ENE 1021,9 15 -
13.09.2019 19:00:00 23,3 20,1 24 13 ENE 1021,1 15 0,0
13.09.2019 18:00:00 23,3 21,4 18 10 E 1020,4 12 0,4
13.09.2019 17:00:00 24,1 21,2 13 7 ENE 1020,7 10 -
13.09.2019 16:00:00 24,7 21,4 21 11 ENE 1020,7 17 0,0
13.09.2019 15:00:00 24,7 20,4 8 4 E 1021,6 19 0,0
13.09.2019 14:00:00 23,1 19,9 5 3 W 1021,9 20 -
13.09.2019 13:00:00 21,6 19,0 5 3 W 1022,7 20 0,0
13.09.2019 12:00:00 19,9 18,6 5 3 WSW 1022,7 20 0,0
13.09.2019 11:00:00 18,8 18,1 8 4 WNW 1022,0 11 -
13.09.2019 10:00:00 18,6 17,8 5 3 SW 1021,6 19 2,0
13.09.2019 09:00:00 18,0 17,4 9 5 SW 1020,6 18 0,0
13.09.2019 08:00:00 17,8 17,3 8 4 S 1020,7 1,8 -
13.09.2019 07:00:00 17,7 17,1 21 11 WSW 1020,3 1,4 20,0
13.09.2019 06:00:00 18,4 17,4 9 5 SSW 1020,6 2,5 4,0
13.09.2019 05:00:00 18,6 17,3 21 11 WNW 1020,8 14 -
13.09.2019 04:00:00 18,5 17,8 18 10 W 1022,4 9 15,0
13.09.2019 03:00:00 18,6 17,9 18 10 WNW 1023,3 2,9 23,0
13.09.2019 02:00:00 18,3 18,0 21 11 WNW 1022,7 0,6 -
13.09.2019 01:00:00 18,4 17,9 18 10 N 1023,7 2,5 15,0
13.09.2019 00:00:00 19,3 17,8 4 2 ENE 1024,1 7 0,4
12.09.2019 23:00:00 19,7 18,2 11 6 NE 1023,2 20 -
12.09.2019 22:00:00 19,3 18,5 11 6 NE 1023,6 17 2,0
12.09.2019 21:00:00 19,7 18,9 18 10 NE 1023,2 4,9 4,0
12.09.2019 20:00:00 20,5 19,0 11 6 E 1022,1 10 -
12.09.2019 19:00:00 21,1 19,6 5 3 ENE 1022,3 19 0,0
12.09.2019 18:00:00 20,8 19,5 4 2 E 1022,0 12 0,4
12.09.2019 17:00:00 20,6 19,6 5 3 ENE 1022,3 20 -
12.09.2019 16:00:00 19,6 19,3 11 6 NNE 1022,7 14 8,0
12.09.2019 15:00:00 19,4 18,9 4 2 WNW 1023,1 6 6,0
12.09.2019 14:00:00 19,2 18,7 4 2 E 1023,6 8 -
12.09.2019 13:00:00 18,6 18,3 8 4 SSW 1023,2 3,0 17,0
12.09.2019 12:00:00 18,5 17,7 8 4 SSW 1022,8 10 4,0
12.09.2019 11:00:00 18,4 17,2 8 4 ENE 1023,1 20 -
12.09.2019 10:00:00 17,9 16,2 4 2 NE 1022,3 19 0,0
12.09.2019 09:00:00 17,3 15,6 8 4 W 1021,4 20 0,0
12.09.2019 08:00:00 16,7 15,6 5 3 WSW 1021,3 20 -
12.09.2019 07:00:00 16,1 15,5 5 3 SW 1020,7 20 0,0
12.09.2019 06:00:00 16,0 15,2 4 2 E 1020,7 18 0,0
12.09.2019 05:00:00 16,1 15,1 5 3 WSW 1019,5 20 -
12.09.2019 04:00:00 15,9 15,3 13 7 SSW 1020,2 0,4 20,0
12.09.2019 03:00:00 16,9 15,8 13 7 W 1019,6 1,4 6,0
12.09.2019 02:00:00 17,4 15,7 9 5 WSW 1021,3 3,1 -
12.09.2019 01:00:00 17,9 14,8 5 3 SSW 1021,4 20 0,0
12.09.2019 00:00:00 18,0 15,4 8 4 SW 1021,8 20 0,0
11.09.2019 23:00:00 17,8 16,0 8 4 SSW 1022,0 20 -
11.09.2019 22:00:00 18,2 16,0 9 5 WNW 1021,2 20 0,0
11.09.2019 21:00:00 17,9 15,9 9 5 NW 1020,8 20 0,0
11.09.2019 20:00:00 19,0 16,4 4 2 NW 1020,3 20 -
11.09.2019 19:00:00 18,4 15,6 11 6 N 1019,4 20 2,0
11.09.2019 18:00:00 20,3 14,4 13 7 NNE 1018,4 19 0,6
11.09.2019 17:00:00 22,4 12,9 16 9 NE 1017,6 20 -
11.09.2019 16:00:00 23,3 12,3 21 11 NE 1017,2 19 0,0
11.09.2019 15:00:00 22,6 11,9 24 13 N 1017,0 20 0,0
11.09.2019 14:00:00 21,6 11,9 26 14 NNE 1016,9 20 -
11.09.2019 13:00:00 22,1 11,5 26 14 NNE 1016,3 20 0,0
11.09.2019 12:00:00 20,0 10,4 11 6 WNW 1016,3 20 0,0
11.09.2019 11:00:00 17,9 11,0 16 9 WNW 1016,5 20 -
11.09.2019 10:00:00 19,5 8,2 16 9 NW 1015,6 20 0,0
11.09.2019 09:00:00 19,7 7,4 15 8 WNW 1014,8 20 0,0
11.09.2019 08:00:00 19,2 7,3 16 9 NW 1014,3 20 -
11.09.2019 07:00:00 18,7 6,8 11 6 NW 1014,3 20 0,0
11.09.2019 06:00:00 18,4 6,9 15 8 NW 1013,7 20 0,0
11.09.2019 05:00:00 18,1 6,9 18 10 WNW 1013,7 20 -
11.09.2019 04:00:00 18,4 6,9 21 11 NW 1013,9 20 0,0
11.09.2019 03:00:00 18,9 6,0 18 10 NW 1014,5 20 0,0
11.09.2019 02:00:00 19,6 5,3 16 9 WNW 1014,5 20 -
11.09.2019 01:00:00 20,2 4,6 15 8 NW 1014,7 20 0,0
11.09.2019 00:00:00 21,5 3,6 26 14 NW 1014,7 20 0,0
10.09.2019 23:00:00 22,3 3,4 11 6 NW 1013,1 18 -
10.09.2019 22:00:00 24,2 2,3 21 11 NW 1012,8 20 0,0
10.09.2019 21:00:00 24,9 1,1 22 12 NNW 1011,8 20 0,0
10.09.2019 20:00:00 26,0 0,6 26 14 NNW 1010,8 20 -
10.09.2019 19:00:00 27,9 0,6 18 10 NW 1009,9 20 0,0
10.09.2019 18:00:00 28,5 -0,7 26 14 WNW 1009,2 20 0,0
10.09.2019 17:00:00 28,8 -1,4 28 15 NNW 1009,0 20 -
10.09.2019 16:00:00 28,8 3,6 21 11 NW 1009,2 20 0,0
10.09.2019 15:00:00 29,0 4,5 22 12 NW 1009,6 20 0,0
10.09.2019 14:00:00 28,5 5,3 26 14 NW 1009,7 17 -
10.09.2019 13:00:00 28,1 6,8 24 13 WNW 1009,8 20 0,0
10.09.2019 12:00:00 27,7 8,0 31 17 NW 1010,0 19 0,0
10.09.2019 11:00:00 27,5 8,4 26 14 NW 1009,8 19 -
10.09.2019 10:00:00 26,1 12,5 11 6 NW 1009,4 20 0,0
10.09.2019 09:00:00 23,8 12,7 11 6 W 1008,8 20 0,0
10.09.2019 08:00:00 21,3 13,2 4 2 W 1008,9 20 -
10.09.2019 07:00:00 21,9 13,5 13 7 WNW 1009,0 20 0,0
10.09.2019 06:00:00 19,7 15,3 5 3 W 1009,6 20 0,0
10.09.2019 05:00:00 19,8 15,9 2 1 W 1010,3 20 -
10.09.2019 04:00:00 21,5 16,0 5 3 NW 1010,9 20 0,0
10.09.2019 03:00:00 22,4 16,2 8 4 W 1011,6 20 0,0
10.09.2019 02:00:00 23,0 16,8 9 5 WSW 1012,3 20 -
10.09.2019 01:00:00 22,9 17,4 4 2 WSW 1012,8 20 0,0
10.09.2019 00:00:00 23,7 18,1 5 3 WSW 1013,1 20 0,0
09.09.2019 23:00:00 23,2 18,1 4 2 NNW 1013,4 20 -
09.09.2019 22:00:00 25,0 18,0 4 2 SSE 1013,3 20 0,0
09.09.2019 21:00:00 25,1 16,3 5 3 W 1013,3 20 0,0
09.09.2019 20:00:00 26,2 19,8 8 4 SSW 1013,1 20 -
09.09.2019 19:00:00 26,9 20,3 15 8 SW 1013,1 20 0,2
09.09.2019 18:00:00 26,6 19,7 9 5 S 1013,2 12 0,0
09.09.2019 17:00:00 28,0 18,1 11 6 SSW 1013,8 20 -
09.09.2019 16:00:00 30,2 14,3 11 6 S 1014,0 20 0,0
09.09.2019 15:00:00 31,7 14,4 13 7 SE 1014,4 20 0,0
09.09.2019 14:00:00 30,6 16,6 4 2 NE 1015,3 20 -
09.09.2019 13:00:00 29,0 18,5 5 3 ESE 1016,4 20 0,0
09.09.2019 12:00:00 27,1 18,1 4 2 SSW 1017,3 19 0,0
09.09.2019 11:00:00 25,3 18,2 4 2 S 1017,6 19 -
09.09.2019 10:00:00 22,8 17,5 4 2 SSW 1017,7 19 0,0

tt = temperature
td = dewpoint
ff = wind speed
dd = wind direction
ppp = reduced air pressure
vv = visibility
rr = precipitation

Next stations